Date String (YYYY-MM-DD hh:mm:ss) UTC,Instrument flags,Ambient pressure (hPa),Sample flow (lpm),Bypass flow (lpm),Sample temperature (°C),Ambient temperature (°C),ASC tube jacket temperature (°C),LED temperature (°C),Box temperature (°C),Sample RH (%),Span deviation,Mass concentration (μg/m³),Mass concentration (μg/m³),Mass concentration (μg/m³)
DateTimeUTC,F1_M11,P_M11,Q1_M11,Q2_M11,T1_M11,T2_M11,T3_M11,T4_M11,T5_M11,U1_M11,ZSPAN_M11,X0_M11,X2_M11,X1_M11
2022-09-22 14:00:00,,0831.7,4.99,0.00,29.1,27.6,00.0,37.8,30.9,26.0,-003.1,0006.22,0004.70,0004.58
2022-09-22 14:01:00,,0831.8,5.01,0.00,29.1,27.5,00.0,37.8,30.9,26.0,-002.9,0006.15,0004.69,0004.58
2022-09-22 14:02:00,,0831.8,5.00,0.00,29.1,27.5,00.0,37.8,30.9,26.0,-003.1,0006.15,0004.69,0004.57
2022-09-22 14:03:00,,0831.8,5.00,0.00,29.1,27.5,00.0,37.8,30.9,26.0,-003.0,0006.11,0004.68,0004.57
2022-09-22 14:04:00,,0831.7,5.00,0.00,29.1,27.5,00.0,37.8,30.9,26.0,-003.0,0006.12,0004.69,0004.57
2022-09-22 14:05:00,,0831.7,5.01,0.00,29.1,27.5,00.0,37.8,30.9,26.0,-003.1,0006.10,0004.69,0004.57
2022-09-22 14:06:00,,0831.7,4.99,0.00,29.1,27.5,00.0,37.8,30.9,26.0,-003.1,0006.04,0004.66,0004.55
2022-09-22 14:07:00,,0831.7,5.01,0.00,29.1,27.5,00.0,37.8,30.9,26.0,-003.2,0005.92,0004.63,0004.54
2022-09-22 14:08:00,,0831.7,4.99,0.00,29.1,27.5,00.0,37.8,30.9,26.0,-003.0,0005.88,0004.61,0004.52
2022-09-22 14:09:00,,0831.7,5.01,0.00,29.1,27.5,00.0,37.8,30.9,26.1,-003.2,0005.87,0004.60,0004.51
2022-09-22 14:10:00,,0831.7,4.99,0.00,29.1,27.5,00.0,37.8,30.9,26.0,-003.3,0005.84,0004.58,0004.49
2022-09-22 14:11:00,,0831.8,5.02,0.00,29.1,27.5,00.0,37.8,30.9,26.0,-003.5,0005.76,0004.55,0004.47
2022-09-22 14:12:00,,0831.7,5.00,0.00,29.1,27.5,00.0,37.8,30.9,26.0,-003.2,0005.82,0004.56,0004.47
2022-09-22 14:13:00,,0831.7,5.00,0.00,29.1,27.5,00.0,37.8,30.9,26.1,-002.8,0005.83,0004.56,0004.47
2022-09-22 14:14:00,,0831.7,5.00,0.00,29.1,27.5,00.0,37.8,30.9,26.1,-002.9,0005.89,0004.56,0004.46
2022-09-22 14:15:00,,0831.7,5.01,0.00,29.1,27.5,00.0,37.8,30.9,26.1,-003.3,0005.90,0004.56,0004.46
2022-09-22 14:16:00,,0831.7,5.00,0.00,29.1,27.5,00.0,37.8,30.9,26.1,-003.4,0005.95,0004.57,0004.46
2022-09-22 14:17:00,,0831.7,5.00,0.00,29.1,27.5,00.0,37.8,30.9,26.1,-003.2,0005.93,0004.58,0004.47
2022-09-22 14:18:00,,0831.7,5.01,0.00,29.1,27.5,00.0,37.8,30.9,26.1,-003.2,0005.99,0004.61,0004.50
2022-09-22 14:19:00,,0831.7,5.00,0.00,29.1,27.5,00.0,37.8,30.9,26.2,-003.6,0006.05,0004.64,0004.53
2022-09-22 14:20:00,,0831.7,5.00,0.00,29.1,27.5,00.0,37.8,30.9,26.2,-002.9,0006.10,0004.68,0004.56
2022-09-22 14:21:00,,0831.7,5.00,0.00,29.1,27.5,00.0,37.8,30.9,26.3,-002.6,0006.22,0004.72,0004.59
2022-09-22 14:22:00,,0831.7,4.99,0.00,29.1,27.5,00.0,37.8,30.9,26.4,-002.6,0006.30,0004.74,0004.61
2022-09-22 14:23:00,,0831.7,5.00,0.00,29.1,27.5,00.0,37.8,30.9,26.4,-002.9,0006.33,0004.76,0004.63
2022-09-22 14:24:00,,0831.7,5.00,0.00,29.1,27.5,00.0,37.8,30.9,26.6,-003.3,0006.39,0004.79,0004.66
2022-09-22 14:25:00,,0831.7,5.00,0.00,29.1,27.5,00.0,37.8,30.9,27.5,-003.3,0006.37,0004.80,0004.68
2022-09-22 14:26:00,,0831.7,5.00,0.00,29.1,27.5,00.0,37.8,30.9,27.1,-003.4,0006.42,0004.81,0004.69
2022-09-22 14:27:00,,0831.6,5.00,0.00,29.1,27.5,00.0,37.8,30.9,26.8,-003.4,0006.51,0004.85,0004.71
2022-09-22 14:28:00,,0831.6,5.01,0.00,29.1,27.5,00.0,37.8,30.9,26.8,-003.5,0006.59,0004.88,0004.74
2022-09-22 14:29:00,,0831.5,4.99,0.00,29.0,27.5,00.0,37.8,30.9,26.8,-003.6,0006.67,0004.90,0004.74
2022-09-22 14:30:00,,0831.5,5.00,0.00,29.0,27.5,00.0,37.8,30.9,26.7,-003.4,0006.70,0004.91,0004.76
2022-09-22 14:31:00,,0831.5,5.00,0.00,29.1,27.5,00.0,37.8,30.9,26.7,-003.3,0006.66,0004.90,0004.75
2022-09-22 14:32:00,,0831.5,5.02,0.00,29.0,27.5,00.0,37.8,30.9,26.7,-003.3,0006.67,0004.90,0004.75
2022-09-22 14:33:00,,0831.4,4.99,0.00,29.1,27.5,00.0,37.8,30.9,26.8,-003.5,0006.68,0004.92,0004.76
2022-09-22 14:34:00,,0831.3,5.01,0.00,29.1,27.5,00.0,37.8,30.9,26.8,-003.6,0006.75,0004.92,0004.75
2022-09-22 14:35:00,,0831.4,4.99,0.00,29.1,27.5,00.0,37.8,30.9,26.7,-003.3,0006.84,0004.90,0004.73
2022-09-22 14:36:00,,0831.4,5.01,0.00,29.1,27.5,00.0,37.8,30.9,26.8,-003.4,0007.36,0004.90,0004.73
2022-09-22 14:37:00,,0831.3,4.99,0.00,29.1,27.5,00.0,37.8,30.9,26.8,-003.2,0007.40,0004.90,0004.73
2022-09-22 14:38:00,,0831.3,5.01,0.00,29.1,27.5,00.0,37.8,30.9,26.7,-001.9,0007.37,0004.88,0004.72
2022-09-22 14:39:00,,0831.3,5.00,0.00,29.1,27.5,00.0,37.8,30.9,26.6,-000.4,0007.36,0004.86,0004.70
2022-09-22 14:40:00,,0831.2,5.00,0.00,29.1,27.5,00.0,37.8,30.9,26.5,-000.5,0007.70,0004.81,0004.66
2022-09-22 14:41:00,,0831.2,5.00,0.00,29.1,27.5,00.0,37.8,30.9,26.6,0000.0,0007.95,0004.77,0004.62
2022-09-22 14:42:00,,0831.2,5.00,0.00,29.1,27.6,00.0,37.8,30.9,26.6,0000.0,0007.96,0004.75,0004.60
2022-09-22 14:43:00,,0831.2,5.00,0.00,29.1,27.6,00.0,37.8,30.9,26.6,0000.0,0007.90,0004.72,0004.57
2022-09-22 14:44:00,,0831.1,5.01,0.00,29.1,27.6,00.0,37.8,30.9,26.5,0000.0,0007.83,0004.69,0004.55
2022-09-22 14:45:00,,0831.1,4.99,0.00,29.1,27.6,00.0,37.8,31.0,26.5,0000.0,0007.77,0004.67,0004.54
2022-09-22 14:46:00,,0831.1,5.01,0.00,29.1,27.6,00.0,37.8,31.0,26.5,0000.0,0007.71,0004.65,0004.53
2022-09-22 14:47:00,,0831.1,4.99,0.00,29.1,27.6,00.0,37.8,31.0,26.5,0000.0,0007.38,0004.64,0004.53
2022-09-22 14:48:00,,0831.0,5.01,0.00,29.1,27.6,00.0,37.8,31.0,26.6,0000.0,0007.33,0004.64,0004.52
2022-09-22 14:49:00,,0831.0,5.00,0.00,29.1,27.6,00.0,37.8,31.0,26.7,0000.0,0007.36,0004.66,0004.53
2022-09-22 14:50:00,,0831.1,4.99,0.00,29.1,27.6,00.0,37.8,31.0,26.6,0000.0,0007.37,0004.67,0004.54
2022-09-22 14:51:00,,0831.2,4.99,0.00,29.1,27.6,00.0,37.8,30.9,26.5,0000.0,0006.82,0004.70,0004.58
2022-09-22 14:52:00,,0831.2,5.01,0.00,29.1,27.6,00.0,37.8,30.9,26.5,0000.0,0006.24,0004.73,0004.61
2022-09-22 14:53:00,,0831.3,5.00,0.00,29.1,27.6,00.0,37.8,31.0,26.4,0000.0,0006.30,0004.76,0004.64
2022-09-22 14:54:00,,0831.4,5.00,0.00,29.1,27.6,00.0,37.8,31.0,26.3,-002.6,0006.38,0004.79,0004.67
2022-09-22 14:55:00,,0831.4,5.01,0.00,29.1,27.6,00.0,37.8,31.0,26.3,-002.6,0006.48,0004.83,0004.69
2022-09-22 14:56:00,,0831.3,4.99,0.00,29.1,27.6,00.0,37.8,31.0,26.3,-002.4,0006.51,0004.84,0004.71
2022-09-22 14:57:00,,0831.3,5.02,0.00,29.1,27.6,00.0,37.8,31.0,26.3,-002.4,0006.50,0004.85,0004.72
2022-09-22 14:58:00,,0831.3,4.98,0.00,29.1,27.6,00.0,37.8,31.0,26.3,-002.4,0006.46,0004.84,0004.70
2022-09-22 14:59:00,,0831.3,5.01,0.00,29.1,27.6,00.0,37.8,31.0,26.3,-001.9,0006.45,0004.83,0004.70
